This is the latest recevied weather packets stored in our database for station/object S50ME-11. If no packets are shown the sender has not sent any weather packets the latest 10 day(s).
| Time | Temp. | Humidity | Pressure | Rain* | Wind** | Luminosity | Snow |
|---|---|---|---|---|---|---|---|
| 1777837546 | 20.56° C | 38% | 1018.7 hPa | - | - | - | - |
| 1777836648 | 20.56° C | 38% | 1019.3 hPa | - | - | - | - |
| 1777836645 | 20.56° C | 38% | 1019.3 hPa | - | - | - | - |
| 1777835748 | 21.11° C | 38% | 1019.1 hPa | - | - | - | - |
| 1777835745 | 21.11° C | 38% | 1019.1 hPa | - | - | - | - |
| 1777834896 | 21.67° C | 38% | 1017.5 hPa | - | - | - | - |
| 1777834848 | 21.67° C | 38% | 1017.5 hPa | - | - | - | - |
| 1777834843 | 21.67° C | 38% | 1017.5 hPa | - | - | - | - |
| 1777833949 | 22.22° C | 37% | 1018.9 hPa | - | - | - | - |
| 1777833943 | 22.22° C | 37% | 1018.9 hPa | - | - | - | - |
| 1777833094 | 22.78° C | 37% | 1018.6 hPa | - | - | - | - |
| 1777833048 | 22.78° C | 37% | 1018.6 hPa | - | - | - | - |
| 1777833042 | 22.78° C | 37% | 1018.6 hPa | - | - | - | - |
| 1777832148 | 23.89° C | 37% | 1018 hPa | - | - | - | - |
| 1777832142 | 23.89° C | 37% | 1018 hPa | - | - | - | - |
| 1777831256 | 24.44° C | 37% | 1016.8 hPa | - | - | - | - |
| 1777831252 | 24.44° C | 37% | 1016.8 hPa | - | - | - | - |
| 1777830415 | 25° C | 36% | 1016.8 hPa | - | - | - | - |
| 1777830355 | 25° C | 36% | 1016.8 hPa | - | - | - | - |
| 1777830352 | 25° C | 36% | 1016.8 hPa | - | - | - | - |
| 1777829454 | 25.56° C | 36% | 1018.1 hPa | - | - | - | - |
| 1777829451 | 25.56° C | 36% | 1018.1 hPa | - | - | - | - |
| 1777828554 | 25.56° C | 36% | 1018.6 hPa | - | - | - | - |
| 1777828551 | 25.56° C | 36% | 1018.6 hPa | - | - | - | - |
| 1777827654 | 26.11° C | 36% | 1018.5 hPa | - | - | - | - |
* Rain since midnight (hover to see other rain measurements)
** Current wind speed in m/s (hover to see current wind gust speed)